• In Hungary
  • List of Countries
  • For 7 days
  • Water Temperature
  • Satellite Maps
  • Weather Map
  • News
  • Weather Widgets
  • user-avatar
    Login

    Hourly Weather Ganja

    Today, 18 August, Friday

    Time Temperature Precipitation Wind Pressure Humidity
    00:00 +25°C° 0 mm 3 mps 724 mmHg 53%
    01:00 +25°C° 0 mm 2 mps 724 mmHg 55%
    02:00 +24°C° 0 mm 2 mps 724 mmHg 56%
    03:00 +24°C° 0 mm 1 mps 724 mmHg 56%
    04:00 +24°C° 0 mm 1 mps 724 mmHg 56%
    05:00 +24°C° 0 mm 2 mps 724 mmHg 56%
    06:00 +24°C° 0 mm 2 mps 724 mmHg 56%
    07:00 +26°C° 0 mm 2 mps 724 mmHg 51%
    08:00 +27°C° 0 mm 2 mps 724 mmHg 46%
    09:00 +29°C° 0 mm 2 mps 724 mmHg 41%
    10:00 +30°C° 0 mm 2 mps 724 mmHg 39%
    11:00 +31°C° 0 mm 2 mps 724 mmHg 37%
    12:00 +32°C° 0 mm 2 mps 724 mmHg 35%
    13:00 +34°C° 0 mm 2 mps 724 mmHg 34%
    14:00 +35°C° 0 mm 2 mps 723 mmHg 33%
    15:00 +35°C° 0 mm 3 mps 723 mmHg 32%
    16:00 +35°C° 0 mm 3 mps 723 mmHg 33%
    17:00 +34°C° 0 mm 3 mps 724 mmHg 35%
    18:00 +34°C° 0 mm 3 mps 724 mmHg 36%
    19:00 +31°C° 0 mm 3 mps 724 mmHg 39%
    20:00 +30°C° 0 mm 3 mps 725 mmHg 42%
    21:00 +28°C° 0 mm 4 mps 725 mmHg 45%
    22:00 +28°C° 0 mm 4 mps 725 mmHg 47%
    23:00 +27°C° 0 mm 3 mps 725 mmHg 49%

    Tomorrow, 19 August, Saturday

    Time Temperature Precipitation Wind Pressure Humidity
    00:00 +27°C° 0 mm 3 mps 726 mmHg 51%
    01:00 +26°C° 0 mm 3 mps 726 mmHg 52%
    02:00 +26°C° 0 mm 3 mps 726 mmHg 53%
    03:00 +25°C° 0 mm 2 mps 726 mmHg 54%
    04:00 +25°C° 0 mm 2 mps 726 mmHg 54%
    05:00 +25°C° 0 mm 1 mps 726 mmHg 54%
    06:00 +25°C° 0 mm 1 mps 726 mmHg 54%
    07:00 +27°C° 0 mm 1 mps 726 mmHg 49%
    08:00 +28°C° 0 mm 1 mps 727 mmHg 44%
    09:00 +30°C° 0 mm 2 mps 727 mmHg 38%
    10:00 +31°C° 0 mm 2 mps 726 mmHg 35%
    11:00 +34°C° 0 mm 3 mps 726 mmHg 32%
    12:00 +35°C° 0 mm 4 mps 726 mmHg 28%
    13:00 +36°C° 0 mm 4 mps 726 mmHg 27%
    14:00 +36°C° 0 mm 5 mps 726 mmHg 25%
    15:00 +37°C° 0 mm 5 mps 725 mmHg 24%
    16:00 +36°C° 0 mm 6 mps 725 mmHg 25%
    17:00 +36°C° 0 mm 6 mps 726 mmHg 26%
    18:00 +35°C° 0 mm 6 mps 726 mmHg 27%
    19:00 +33°C° 0 mm 6 mps 726 mmHg 29%
    20:00 +30°C° 0 mm 6 mps 727 mmHg 30%
    21:00 +29°C° 0 mm 6 mps 727 mmHg 32%
    22:00 +28°C° 0 mm 5 mps 727 mmHg 34%
    23:00 +27°C° 0 mm 4 mps 727 mmHg 36%

    Day after tomorrow, 20 August, Sunday

    Time Temperature Precipitation Wind Pressure Humidity
    00:00 +26°C° 0 mm 3 mps 727 mmHg 38%
    01:00 +26°C° 0 mm 3 mps 727 mmHg 39%
    02:00 +25°C° 0 mm 2 mps 727 mmHg 40%
    03:00 +24°C° 0 mm 2 mps 727 mmHg 41%
    04:00 +24°C° 0 mm 2 mps 727 mmHg 41%
    05:00 +24°C° 0 mm 1 mps 727 mmHg 41%
    06:00 +24°C° 0 mm 1 mps 727 mmHg 41%
    07:00 +26°C° 0 mm 1 mps 727 mmHg 36%
    08:00 +28°C° 0 mm 1 mps 727 mmHg 31%
    09:00 +30°C° 0 mm 2 mps 727 mmHg 27%
    10:00 +31°C° 0 mm 2 mps 727 mmHg 25%
    11:00 +34°C° 0 mm 3 mps 726 mmHg 22%
    12:00 +35°C° 0 mm 4 mps 726 mmHg 20%
    13:00 +36°C° 0 mm 4 mps 726 mmHg 20%
    14:00 +36°C° 0 mm 5 mps 726 mmHg 19%
    15:00 +37°C° 0 mm 5 mps 725 mmHg 18%
    16:00 +36°C° 0 mm 5 mps 725 mmHg 21%
    17:00 +35°C° 0 mm 5 mps 725 mmHg 23%
    18:00 +35°C° 0 mm 4 mps 725 mmHg 25%
    19:00 +33°C° 0 mm 5 mps 726 mmHg 28%
    20:00 +30°C° 0 mm 5 mps 726 mmHg 31%
    21:00 +28°C° 0 mm 5 mps 727 mmHg 34%
    22:00 +27°C° 0 mm 4 mps 727 mmHg 35%
    23:00 +27°C° 0 mm 4 mps 727 mmHg 37%

    21 August, Monday

    Time Temperature Precipitation Wind Pressure Humidity
    00:00 +26°C° 0 mm 3 mps 726 mmHg 38%
    01:00 +25°C° 0 mm 2 mps 726 mmHg 38%
    02:00 +25°C° 0 mm 2 mps 726 mmHg 38%
    03:00 +24°C° 0 mm 1 mps 726 mmHg 39%
    04:00 +24°C° 0 mm 1 mps 726 mmHg 38%
    05:00 +24°C° 0 mm 2 mps 726 mmHg 38%
    06:00 +24°C° 0 mm 2 mps 726 mmHg 38%
    07:00 +26°C° 0 mm 2 mps 726 mmHg 34%
    08:00 +28°C° 0 mm 2 mps 726 mmHg 30%
    09:00 +30°C° 0 mm 2 mps 726 mmHg 27%
    10:00 +31°C° 0 mm 2 mps 725 mmHg 25%
    11:00 +34°C° 0 mm 3 mps 725 mmHg 24%
    12:00 +35°C° 0 mm 3 mps 724 mmHg 23%
    13:00 +36°C° 0 mm 3 mps 724 mmHg 22%
    14:00 +36°C° 0 mm 4 mps 724 mmHg 21%
    15:00 +37°C° 0 mm 4 mps 723 mmHg 21%
    16:00 +36°C° 0 mm 4 mps 723 mmHg 23%
    17:00 +36°C° 0 mm 3 mps 723 mmHg 25%
    18:00 +35°C° 0 mm 3 mps 724 mmHg 27%
    19:00 +33°C° 0 mm 3 mps 724 mmHg 30%
    20:00 +30°C° 0 mm 4 mps 724 mmHg 32%
    21:00 +29°C° 0 mm 4 mps 725 mmHg 35%
    22:00 +28°C° 0 mm 4 mps 725 mmHg 36%
    23:00 +27°C° 0 mm 3 mps 725 mmHg 38%

    22 August, Tuesday

    Time Temperature Precipitation Wind Pressure Humidity
    00:00 +26°C° 0 mm 3 mps 725 mmHg 39%
    01:00 +26°C° 0 mm 2 mps 725 mmHg 40%
    02:00 +25°C° 0 mm 2 mps 724 mmHg 41%
    03:00 +25°C° 0 mm 1 mps 724 mmHg 42%
    04:00 +25°C° 0 mm 1 mps 724 mmHg 42%
    05:00 +25°C° 0 mm 1 mps 724 mmHg 42%
    06:00 +25°C° 0 mm 1 mps 724 mmHg 41%
    07:00 +27°C° 0 mm 1 mps 724 mmHg 37%
    08:00 +29°C° 0 mm 1 mps 724 mmHg 32%
    09:00 +31°C° 0 mm 1 mps 724 mmHg 28%
    10:00 +32°C° 0 mm 2 mps 724 mmHg 26%
    11:00 +34°C° 0 mm 3 mps 724 mmHg 24%
    12:00 +36°C° 0 mm 4 mps 723 mmHg 22%
    13:00 +36°C° 0 mm 4 mps 723 mmHg 22%
    14:00 +37°C° 0 mm 4 mps 723 mmHg 21%
    15:00 +38°C° 0 mm 4 mps 722 mmHg 20%
    16:00 +37°C° 0 mm 4 mps 722 mmHg 23%
    17:00 +36°C° 0 mm 4 mps 723 mmHg 25%
    18:00 +35°C° 0 mm 4 mps 723 mmHg 27%
    19:00 +34°C° 0 mm 4 mps 723 mmHg 29%
    20:00 +32°C° 0 mm 4 mps 724 mmHg 31%
    21:00 +29°C° 0 mm 5 mps 724 mmHg 33%
    22:00 +28°C° 0 mm 4 mps 724 mmHg 35%
    23:00 +27°C° 0 mm 4 mps 724 mmHg 37%

    23 August, Wednesday

    Time Temperature Precipitation Wind Pressure Humidity
    00:00 +27°C° 0 mm 3 mps 724 mmHg 39%
    01:00 +26°C° 0 mm 2 mps 724 mmHg 41%
    02:00 +25°C° 0 mm 2 mps 724 mmHg 42%
    03:00 +25°C° 0 mm 1 mps 724 mmHg 43%
    04:00 +25°C° 0 mm 1 mps 724 mmHg 44%
    05:00 +25°C° 0 mm 1 mps 725 mmHg 44%
    06:00 +25°C° 0 mm 1 mps 725 mmHg 44%
    07:00 +27°C° 0 mm 1 mps 725 mmHg 38%
    08:00 +29°C° 0 mm 2 mps 725 mmHg 33%
    09:00 +31°C° 0 mm 2 mps 725 mmHg 28%
    10:00 +33°C° 0 mm 3 mps 725 mmHg 25%
    11:00 +35°C° 0 mm 4 mps 725 mmHg 22%
    12:00 +36°C° 0 mm 5 mps 724 mmHg 19%
    13:00 +37°C° 0 mm 5 mps 724 mmHg 19%
    14:00 +37°C° 0 mm 5 mps 724 mmHg 18%
    15:00 +39°C° 0 mm 6 mps 724 mmHg 18%
    16:00 +38°C° 0 mm 6 mps 724 mmHg 20%
    17:00 +36°C° 0 mm 6 mps 724 mmHg 23%
    18:00 +35°C° 0 mm 6 mps 724 mmHg 25%
    19:00 +33°C° 0 mm 6 mps 725 mmHg 27%
    20:00 +30°C° 0 mm 5 mps 725 mmHg 30%
    21:00 +28°C° 0 mm 5 mps 726 mmHg 32%
    22:00 +27°C° 0 mm 4 mps 726 mmHg 33%
    23:00 +27°C° 0 mm 4 mps 726 mmHg 35%
    Show more